Regional Weather Roundup
Issued by NWS Sioux Falls, SD

Home | Current Version | Previous Version | Graphics & Text | Print | Product List | Glossary On
Versions: 1 2 3 4 5 6 7 8 9 10 11 12 13 14 15 16 17 18 19 20 21 22 23 24 25 26 27 28 29 30 31 32 33 34 35 36 37 38 39 40 41 42 43 44 45 46 47 48 49 50
000
ASUS43 KFSD 280110
RWRFSD

WEATHER ROUNDUP FOR SE SOUTH DAKOTA/SW MINNESOTA/NW IOWA
NATIONAL WEATHER SERVICE SIOUX FALLS SD
800 PM CDT FRI MAR 27 2015

NOTE: "FAIR" INDICATES FEW OR NO CLOUDS BELOW 12,000 FEET WITH NO
SIGNIFICANT WEATHER AND OR OBSTRUCTIONS TO VISIBILITY.


SDZ038>040-050-052>070-280200-
SOUTHEAST SOUTH DAKOTA

CITY           SKY/WX    TMP DP  RH WIND       PRES   REMARKS
CHAMBERLAIN    PTCLDY    35  30  81 SE10      29.94S WCI  28
HURON          CLOUDY    32  28  85 S10       29.99F WCI  24
MADISON        CLOUDY    32  21  64 S13       30.02S WCI  22
MITCHELL       CLOUDY    35  27  72 S15       30.02S WCI  25
SIOUX FALLS    CLOUDY    33  21  61 S12       30.05F WCI  24
WINNER         FAIR      47  32  56 E13       29.90R
YANKTON        CLOUDY    34  27  75 SE13      30.03F WCI  25
$$

MNZ071-072-080-081-089-090-097-098-280200-
SOUTHWEST MINNESOTA

CITY           SKY/WX    TMP DP  RH WIND       PRES   REMARKS
FAIRMONT       PTCLDY    32  10  40 S5        30.11S WCI  27
JACKSON        CLOUDY    34  12  40 S3        30.10S
LUVERNE        CLOUDY    34  21  60 S7        30.07F WCI  28
MARSHALL       CLOUDY    34  10  37 S7        30.09S WCI  28
MONTEVIDEO     CLOUDY    34  16  47 S9        30.11S WCI  26
PIPESTONE      CLOUDY    32  19  59 SW8       30.04S WCI  25
REDWOOD FALLS  CLOUDY    31  19  61 E7        30.11S WCI  24
TRACY          CLOUDY    34  16  48 S5        30.09S WCI  29
WINDOM         CLOUDY    34  10  37 CALM      30.10S
WORTHINGTON    CLOUDY    30  12  47 SW9       30.09S WCI  22
$$

IAZ001>003-012>014-020>022-031-032-NEZ013-014-SDZ071-280200-
NORTHWEST IOWA

CITY           SKY/WX    TMP DP  RH WIND       PRES   REMARKS
CHEROKEE       CLOUDY    35  13  39 S7        30.11S WCI  29
DENISON        CLOUDY    36  12  38 SW6       30.10F
ESTHERVILLE    CLOUDY    32  17  54 SW3       30.10F
LE MARS        CLOUDY    34  23  64 S8        30.09F WCI  27
ORANGE CITY    CLOUDY    36  19  51 S3        30.07F
SHELDON        CLOUDY    32  18  55 SE8       30.08S WCI  25
SIOUX CITY     CLOUDY    34  23  64 SE7       30.10F WCI  28
SPENCER        CLOUDY    34  18  52 SW6       30.10F WCI  29
STORM LAKE     CLOUDY    34  14  44 W8        30.11S WCI  27
$$

ABBREVIATIONS USED IN REMARKS
   TC - TEMPERATURE IN CELSIUS
  WCI - WIND CHILL INDEX
   HX - HEAT INDEX
  VSB - VISIBILITY



USA.gov is the U.S. government's official web portal to all federal, state and local government web resources and services.